| time (UTC) | temp C | wind direction | speed KPH | gust KPH | rain 1hr cm | rain 24hr cm | rain mn cm | humidity % | barometer mb |
| 20260507120307 | 15 | 74 | 8.0 | 20.9 | 0.00 | 0.00 | 0.00 | 57 | 1014.8 |
| 20260507110310 | 14 | 110 | 6.4 | 16.1 | 0.00 | 0.00 | 0.00 | 58 | 1015.0 |
| 20260507103304 | 13 | 64 | 6.4 | 12.9 | 0.00 | 0.00 | 0.00 | 61 | 1015.0 |
| 20260507100308 | 14 | 126 | 4.8 | 11.3 | 0.00 | 0.00 | 0.00 | 61 | 1015.2 |
| 20260507093304 | 13 | 196 | 6.4 | 16.1 | 0.00 | 0.00 | 0.00 | 64 | 1015.2 |
| 20260507090310 | 13 | 97 | 6.4 | 12.9 | 0.00 | 0.00 | 0.00 | 65 | 1015.0 |
| 20260507080312 | 11 | 172 | 6.4 | 16.1 | 0.00 | 0.00 | 0.00 | 73 | 1015.2 |
| 20260507073303 | 11 | 143 | 6.4 | 16.1 | 0.00 | 0.00 | 0.00 | 79 | 1015.1 |
| 20260507070303 | 9 | 84 | 0.0 | 9.7 | 0.00 | 0.00 | 0.00 | 86 | 1015.0 |
| 20260507063308 | 7 | 68 | 0.0 | 4.8 | 0.00 | 0.00 | 0.00 | 89 | 1014.9 |
| 20260507060303 | 6 | 39 | 0.0 | 3.2 | 0.00 | 0.00 | 0.00 | 89 | 1014.9 |
| 20260507053305 | 6 | 46 | 0.0 | 3.2 | 0.00 | 0.00 | 0.00 | 90 | 1014.7 |
| 20260507043300 | 5 | 22 | 0.0 | 0.0 | 0.00 | 0.00 | 0.00 | 88 | 1014.3 |
| 20260507040301 | 6 | 94 | 0.0 | 0.0 | 0.00 | 0.00 | 0.00 | 88 | 1014.2 |
| 20260507033305 | 6 | 98 | 0.0 | 0.0 | 0.00 | 0.00 | 0.00 | 87 | 1014.0 |
| 20260507030302 | 7 | 94 | 0.0 | 0.0 | 0.00 | 0.00 | 0.00 | 87 | 1013.9 |
| 20260507023258 | 7 | 97 | 0.0 | 0.0 | 0.00 | 0.00 | 0.00 | 86 | 1013.9 |
| 20260507020259 | 8 | 88 | 0.0 | 0.0 | 0.00 | 0.00 | 0.00 | 86 | 1013.9 |
| 20260507013258 | 8 | 39 | 0.0 | 0.0 | 0.00 | 0.00 | 0.00 | 86 | 1014.0 |
| 20260507010258 | 8 | 64 | 0.0 | 0.0 | 0.00 | 0.00 | 0.00 | 86 | 1014.2 |
| 20260507003304 | 8 | 38 | 0.0 | 0.0 | 0.00 | 0.00 | 0.00 | 86 | 1014.0 |
| 20260506233258 | 8 | 48 | 6.4 | 14.5 | 0.00 | 0.00 | 0.00 | 87 | 1014.0 |
| 20260506230305 | 8 | 35 | 3.2 | 9.7 | 0.00 | 0.00 | 0.00 | 86 | 1014.1 |
| 20260506223256 | 8 | 55 | 4.8 | 9.7 | 0.00 | 0.00 | 0.00 | 86 | 1013.9 |
| 20260506220256 | 8 | 45 | 4.8 | 12.9 | 0.00 | 0.00 | 0.00 | 85 | 1013.8 |
| 20260506213254 | 8 | 41 | 4.8 | 19.3 | 0.00 | 0.00 | 0.00 | 85 | 1013.7 |
| 20260506203255 | 8 | 37 | 8.0 | 22.5 | 0.00 | 0.00 | 0.00 | 84 | 1013.3 |
| 20260506200255 | 8 | 39 | 11.3 | 24.1 | 0.00 | 0.00 | 0.00 | 83 | 1013.2 |
| 20260506190258 | 9 | 37 | 12.9 | 27.4 | 0.00 | 0.00 | 0.00 | 81 | 1012.9 |
| 20260506183251 | 10 | 5 | 11.3 | 22.5 | 0.00 | 0.00 | 0.00 | 81 | 1012.6 |
| 20260506180300 | 10 | 342 | 11.3 | 22.5 | 0.00 | 0.00 | 0.00 | 80 | 1012.3 |
| 20260506173252 | 11 | 16 | 12.9 | 29.0 | 0.00 | 0.00 | 0.00 | 79 | 1012.1 |
| 20260506170256 | 11 | 5 | 14.5 | 29.0 | 0.00 | 0.00 | 0.00 | 79 | 1012.1 |
| 20260506160253 | 13 | 26 | 12.9 | 25.7 | 0.00 | 0.00 | 0.00 | 70 | 1012.0 |
| 20260506153240 | 12 | 0 | 11.3 | 25.7 | 0.00 | 0.00 | 0.00 | 71 | 1012.1 |
| 20260506150246 | 12 | 63 | 12.9 | 22.5 | 0.00 | 0.00 | 0.00 | 66 | 1012.0 |
| 20260506143241 | 12 | 57 | 11.3 | 22.5 | 0.00 | 0.00 | 0.00 | 62 | 1011.8 |
| 20260506140248 | 13 | 9 | 12.9 | 33.8 | 0.00 | 0.00 | 0.00 | 65 | 1011.7 |
| 20260506133240 | 13 | 331 | 12.9 | 27.4 | 0.00 | 0.00 | 0.00 | 59 | 1011.9 |
| 20260506123243 | 13 | 20 | 11.3 | 27.4 | 0.00 | 0.00 | 0.00 | 57 | 1011.8 |